Volver al catálogo

CZ-6A DEB

ActivoSSO
NORAD 56644·DEBRIS·🇨🇳 China

Lanzado Nov 11, 2022 desde Taiyuan Satellite Launch Center

Loading…

Próximos Pases (próximas 24 horas)

TLE

ActualizadoSource: Space-Track

Época: Sep 14, 2026, 06:36 UTC

1 56644U 22151AFU 26257.27503363  .00000134  00000-0  97392-4 0  9999
2 56644  98.8377 257.5465 0040018  70.8836 289.6662 14.11308979175205

Sigue CZ-6A DEB en tiempo real con AllMySat

Download on the App Store